Home   Weather   Sfax   Past weeks

Flag for Tunisia Past Weather in Sfax, Tunisia — Yesterday and Last 2 Weeks

Now
59 °F

Passing clouds.


Feels Like: 60 °F
Forecast: 60 / 66 °F
Wind: 3 mph from North

Location: Sfax El-Maou

Current Time: Dec 8, 2016 at 3:18:41 am

Latest Report: Dec 8, 2016 at 2:00 am


Visibility: 4 mi

Pressure: 30.27 "Hg

Humidity: 94%

Dew Point: 57 °F

Location of SfaxLocation

Past Weather in Sfax — Graph

°F

Sfax Temperature Yesterday

Maximum temperature yesterday: 66 °F (at 1:00 pm)
Minimum temperature yesterday: 59 °F (at 12:00 am)
Average temperature yesterday: 62 °F

High & Low Weather Summary for the Past Weeks

 TemperatureHumidityPressure
High73 °F (Nov 23, 1:00 pm)94% (Nov 23, 4:00 am)30.39 "Hg (Nov 23, 4:00 am)
Low41 °F (Dec 2, 7:00 am)32% (Dec 1, 4:00 pm)29.74 "Hg (Nov 28, 3:00 pm)
Average60 °F73%30.06 "Hg
* Reported Nov 23 2:00 am — Dec 8 2:00 am, Sfax, Weather by CustomWeather, © 2016

Note: Actual official high and low records may vary slightly from our data, if they occured in-between our weather recording intervals... More about our weather records

Advertising

Sfax Weather History for the Previous 24 Hours

Scroll right to see more
 ConditionsComfort  
Time TempWeatherWind HumidityBarometerVisibility
2:00 am
Thu, Dec 8
59 °FPassing clouds.3 mph94%30.27 "Hg4 mi
1:00 am61 °FPassing clouds.5 mph88%30.24 "Hg4 mi
12:00 am61 °FPassing clouds.6 mph94%30.27 "Hg4 mi
11:00 pm
Wed, Dec 7
61 °FPassing clouds.7 mph94%30.27 "Hg4 mi
10:00 pm61 °FPassing clouds.7 mph88%30.24 "Hg4 mi
9:00 pm61 °FPassing clouds.6 mph94%30.24 "Hg4 mi
8:00 pm63 °FPassing clouds.5 mph88%30.24 "Hg4 mi
7:00 pm63 °FPassing clouds.6 mph88%30.21 "Hg4 mi
6:00 pm63 °FPassing clouds.5 mph83%30.21 "Hg4 mi
5:00 pm64 °FScattered clouds.7 mph78%30.18 "Hg4 mi
4:00 pm66 °FScattered clouds.5 mph78%30.18 "Hg4 mi
3:00 pm66 °FScattered clouds.7 mph78%30.15 "Hg4 mi
2:00 pm66 °FScattered clouds.9 mph78%30.15 "Hg4 mi
1:00 pm66 °FScattered clouds.12 mph78%30.15 "Hg4 mi
12:00 pm64 °FScattered clouds.7 mph78%30.18 "Hg4 mi
11:00 am63 °FScattered clouds.6 mph83%30.21 "Hg4 mi
10:00 am61 °FScattered clouds.7 mph88%30.21 "Hg4 mi
9:00 am61 °FBroken clouds.8 mph88%30.18 "Hg4 mi
8:00 am59 °FBroken clouds.6 mph88%30.18 "Hg4 mi
7:00 am59 °FPartly cloudy.5 mph88%30.15 "Hg4 mi
5:00 am59 °FPartly cloudy.3 mph94%30.12 "Hg4 mi
4:00 am59 °FPassing clouds.5 mph94%30.15 "Hg2 mi
Weather by CustomWeather, © 2016

See weather overviewHow to use our weather pages